アトラス彗星

C/2018 L2 ( ATLAS )

English version
Home page
Updated on February 19, 2020

---------------------------------------------------------------------

・ プロフィール

発見日 2018年6月6日
発見光度 15.6等
発見者 Asteroid Terrestrial-impact Last Alert System (ATLAS) search program

・ 写真集

・ 軌道要素

Epoch 2018 Nov. 18.0 TT = JDT 2458440.5
T 2018 Dec. 2.57874 TT                                  Bell
q   1.7116812            (2000.0)            P               Q
z  +0.0041115      Peri.   56.22970     +0.03220287     +0.56732589
 +/-0.0000007      Node   243.01854     -0.89265208     +0.38666422
e   0.9929625      Incl.   67.42369     +0.44959453     +0.72707092
From 718 observations 2017 Apr. 29-2019 Dec. 31, mean residual 0".8.

・ 星図

・ 光度変化

        m1 = 3.0 + 5 logΔ + 25.0 log r  [ ,0]  (              〜2018年12月 2日)
        m1 = 5.1 + 5 logΔ + 16.0 log r  [0, ]  (2018年12月 2日〜              )

---------------------------------------------------------------------

軌道要素はM.P.E.C. 2020-C98に掲載されたものです。
星図はステラナビゲータ Ver.10 (アストロアーツ) で作成したものです。
光度グラフはComet for Windowsで作成したものです。

---------------------------------------------------------------------

Copyright(C) Seiichi Yoshida (comet@aerith.net). All rights reserved.